Location: Monza
(45.5830°N, 9.2670°E)
Time: 11:55:32
(UTC+02:00)

ISS - Visible Passes

Search period start: 11 May 2021 00:00
Search period end: 21 May 2021 00:00
Orbit: 418 x 421 km, 51.6° (Epoch: 11 May)

Date Brightness Start Highest point End Pass type
(mag) Time Alt. Az. Time Alt. Az. Time Alt. Az.
11 May -1.8 02:04:21 29° NNE 02:04:21 29° NNE 02:06:34 10° NE visible
11 May -1.7 03:37:47 10° WNW 03:40:48 29° N 03:43:48 10° ENE visible
11 May -3.3 05:14:37 10° WNW 05:18:00 68° NNE 05:21:23 10° ESE visible
12 May -1.1 01:18:16 16° NE 01:18:16 16° NE 01:19:08 10° NE visible
12 May -1.7 02:51:12 16° NW 02:53:12 28° N 02:56:11 10° ENE visible
12 May -2.7 04:27:13 10° NW 04:30:31 49° NNE 04:33:49 10° E visible
13 May -1.7 02:05:02 27° NNW 02:05:37 28° N 02:08:37 10° ENE visible
13 May -2.3 03:39:48 10° NW 03:42:59 38° NNE 03:46:11 10° E visible
13 May -3.6 05:16:36 10° WNW 05:19:54 52° SW 05:23:12 10° SE visible
14 May -1.7 01:18:38 29° NNE 01:18:38 29° NNE 01:21:05 10° NE visible
14 May -1.9 02:52:20 10° NW 02:55:27 32° NNE 02:58:32 10° ENE visible
14 May -3.9 04:29:07 10° WNW 04:32:31 82° SSW 04:35:53 10° ESE visible
14 May -3.9 22:50:10 10° SW 22:53:29 62° SSE 22:55:37 20° ENE visible
15 May -2.2 00:27:19 10° W 00:30:28 35° NNW 00:33:37 10° NE visible
15 May -1.7 02:04:51 10° WNW 02:07:51 29° N 02:10:52 10° ENE visible
15 May -3.5 03:41:41 10° WNW 03:45:03 69° NNE 03:48:26 10° ESE visible
15 May -3.3 22:02:58 10° SSW 22:06:07 38° SE 22:09:18 10° ENE visible
15 May -2.6 23:39:40 10° W 23:42:56 44° NNW 23:46:11 10° NE visible
16 May -1.6 01:17:17 10° WNW 01:20:16 28° N 01:23:14 10° ENE visible
16 May -2.8 02:54:16 10° NW 02:57:34 49° NNE 03:00:52 10° E visible
16 May -3.1 04:31:14 10° WNW 04:34:18 32° SW 04:37:22 10° SSE visible
16 May -3.2 22:52:05 10° WSW 22:55:25 60° NNW 22:58:45 10° ENE visible
17 May -1.7 00:29:41 10° WNW 00:32:40 28° N 00:35:39 10° ENE visible
17 May -2.3 02:06:51 10° NW 02:10:03 38° NNE 02:13:14 10° E visible
17 May -3.7 03:43:39 10° WNW 03:46:57 51° SW 03:50:14 10° SE visible
17 May -3.8 22:04:35 10° WSW 22:07:57 86° NNW 22:11:19 10° ENE visible
17 May -1.8 23:42:02 10° WNW 23:45:04 30° N 23:48:08 10° NE visible
18 May -2.0 01:19:23 10° NW 01:22:29 32° NNE 01:22:56 31° NNE visible
18 May -2.1 22:54:21 10° W 22:57:30 35° NNW 23:00:39 10° NE visible
19 May -1.7 00:31:53 10° WNW 00:34:53 29° N 00:36:31 19° NE visible
19 May -1.2 02:08:43 10° WNW 02:09:26 15° WNW 02:09:26 15° WNW visible
19 May -2.5 22:06:42 10° W 22:09:57 44° NNW 22:13:12 10° NE visible
19 May -1.7 23:44:19 10° WNW 23:47:17 28° N 23:50:15 10° ENE visible
20 May -2.0 01:21:18 10° NW 01:23:17 30° NW 01:23:17 30° NW visible
20 May -1.7 22:56:42 10° WNW 22:59:41 28° N 23:02:40 10° ENE visible
